Content
SEND FEEDBACK

Daily
Averages
Monthly
Summary
United States of America

TOMBSTONE, ARIZONA


Home > North America > United States > Arizona
Elevation: 4392 feet     Latitude: 31 43N     Longitude: 110 04W

WEATHER
 
SELECT A DAY
Number of Records: 125,589;   Date Range: 1/3/95 - 11/23/14
 
SHARE

PRINT THIS DATA

[ ← Previous Day ]
WEATHER ALMANAC - FEBRUARY 5, 2013
[ Next Day → ]
[ °C ]   °F
Weather ElementAverageHighLow
Temperature53.4 °F64.4 °F (1:55 pm)41 °F (3:55 am)
Dewpoint33.7 °F37.4 °F (8:55 am)28.4 °F (4:55 pm)
Humidity50.6 %76 % (3:55 am)26 % (4:55 pm)
Barometer29.96 in30.03 in (7:55 am)29.90 in (4:55 pm)
Wind Speed6.1 mph13.8 mph (8:55 pm)
Weather ElementAverage
Visibility10 mi
Wind DirectionESE (117.3 °)

Weather ElementTotal
Precipitation---
Heating Degree Days12.3 (Base 65)
Growing Degree Days2.7 (Base 50)
Averaged from 22 records on February 5, 2013
WEATHER CONDITIONS BREAKOUT
WIND DIRECTION BREAKOUT
WEATHER BY HOUR - FEBRUARY 5, 2013
[ °C ]   °F
Local TimeTemperatureDewpointHumidityBarometerVisibilityWind DirectionWind SpeedGust SpeedPrecipitationEventsConditions
2:55 AM44.6 °F35.6 °F71 %29.98 in10.0 miSSW (210°)6.9 mphScattered Clouds
3:55 AM41.0 °F33.8 °F76 %29.98 in10.0 miCalmScattered Clouds
4:55 AM44.6 °F35.6 °F71 %29.97 in10.0 miCalmPartly Cloudy
5:55 AM41.0 °F33.8 °F76 %29.99 in10.0 miSouth (170°)4.6 mphPartly Cloudy
6:55 AM41.0 °F33.8 °F76 %30.01 in10.0 miSouth (190°)6.9 mphClear
7:55 AM44.6 °F35.6 °F71 %30.03 in10.0 miSouth (190°)4.6 mphClear
8:55 AM53.6 °F37.4 °F54 %30.01 in10.0 miVariable2.3 mphClear
9:55 AM55.4 °F37.4 °F51 %30.02 in10.0 miVariable3.5 mphPartly Cloudy
10:55 AM57.2 °F35.6 °F44 %30.02 in10.0 miVariable6.9 mphPartly Cloudy
11:55 AM60.8 °F33.8 °F36 %29.99 in10.0 miVariable6.9 mphClear
12:55 PM62.6 °F32.0 °F32 %29.96 in10.0 miVariable6.9 mphPartly Cloudy
1:55 PM64.4 °F30.2 °F28 %29.92 in10.0 miVariable4.6 mphPartly Cloudy
2:55 PM64.4 °F30.2 °F28 %29.91 in10.0 miCalmPartly Cloudy
3:55 PM64.4 °F30.2 °F28 %29.91 in10.0 miCalmPartly Cloudy
4:55 PM64.4 °F28.4 °F26 %29.90 in10.0 miWest (260°)10.4 mphPartly Cloudy
5:55 PM59.0 °F30.2 °F34 %29.93 in10.0 miWest (270°)10.4 mphPartly Cloudy
6:55 PM55.4 °F32.0 °F41 %29.95 in10.0 miWSW (240°)11.5 mphClear
7:55 PM53.6 °F33.8 °F47 %29.95 in10.0 miWest (270°)12.7 mphClear
8:55 PM51.8 °F35.6 °F54 %29.94 in10.0 miWest (270°)13.8 mphClear
9:55 PM51.8 °F37.4 °F58 %29.94 in10.0 miWest (260°)13.8 mphClear
10:55 PM48.2 °F35.6 °F62 %29.95 in10.0 miWSW (250°)6.9 mphClear
11:55 PM51.8 °F33.8 °F50 %29.93 in10.0 miCalmClear
Hourly data recorded from KFHU, located miles away from Tombstone, Arizona







STORIES FROM OUR PARTNERS